When you browse on this site, cookies collect data to enhance your experience and personalize the content and advertising you see.
Visit our Privacy Policy to learn more. By continuing to use the site, you agree to this use of cookies and data.
  • en Suisse
  • Liste des pays
  • À 7 jours
  • Température de l'eau
  • Carte météo
  • Widgets météo
  • user-avatar
    Se connecter

    Météo par heure à Worcester

    Ce jour, 29 Janvier, Mercredi

    Heure Température Précipitation Vent Pression Humidité
    00:00 +1°C° 0 mm 5 m/s 747 mmHg 85%
    01:00 +1°C° 0 mm 5 m/s 747 mmHg 84%
    02:00 0°C° 0 mm 5 m/s 748 mmHg 83%
    03:00 0°C° 0 mm 5 m/s 748 mmHg 82%
    04:00 0°C° 0 mm 5 m/s 749 mmHg 83%
    05:00 0°C° 0 mm 5 m/s 749 mmHg 85%
    06:00 0°C° 0 mm 5 m/s 750 mmHg 88%
    07:00 0°C° 0 mm 5 m/s 750 mmHg 87%
    08:00 +1°C° 0 mm 5 m/s 751 mmHg 86%
    09:00 +1°C° 0 mm 5 m/s 751 mmHg 86%
    10:00 +3°C° 0 mm 5 m/s 751 mmHg 81%
    11:00 +4°C° 0 mm 6 m/s 752 mmHg 76%
    12:00 +7°C° 0 mm 6 m/s 752 mmHg 74%
    13:00 +7°C° 0 mm 6 m/s 752 mmHg 74%
    14:00 +7°C° 0 mm 5 m/s 752 mmHg 74%
    15:00 +7°C° 0 mm 5 m/s 752 mmHg 74%
    16:00 +7°C° 0 mm 6 m/s 752 mmHg 78%
    17:00 +5°C° 0 mm 6 m/s 752 mmHg 81%
    18:00 +4°C° 0 mm 6 m/s 752 mmHg 84%
    19:00 +5°C° 0 mm 7 m/s 752 mmHg 85%
    20:00 +5°C° 0 mm 7 m/s 752 mmHg 85%
    21:00 +5°C° 0 mm 7 m/s 751 mmHg 85%
    22:00 +5°C° 0 mm 6 m/s 751 mmHg 88%
    23:00 +4°C° 0 mm 6 m/s 752 mmHg 90%

    Demain, 30 Janvier, Jeudi

    Heure Température Précipitation Vent Pression Humidité
    00:00 +5°C° 0 mm 5 m/s 752 mmHg 92%
    01:00 +4°C° 0 mm 4 m/s 751 mmHg 93%
    02:00 +4°C° 0 mm 4 m/s 751 mmHg 94%
    03:00 +4°C° 0 mm 3 m/s 750 mmHg 95%
    04:00 +4°C° 0 mm 3 m/s 750 mmHg 96%
    05:00 +4°C° 0 mm 3 m/s 749 mmHg 96%
    06:00 +5°C° 0 mm 3 m/s 748 mmHg 97%
    07:00 +5°C° 0 mm 3 m/s 748 mmHg 97%
    08:00 +7°C° 0 mm 3 m/s 747 mmHg 97%
    09:00 +7°C° 0 mm 3 m/s 746 mmHg 97%
    10:00 +7°C° 0 mm 4 m/s 746 mmHg 95%
    11:00 +8°C° 0 mm 4 m/s 746 mmHg 94%
    12:00 +10°C° 0 mm 4 m/s 745 mmHg 93%
    13:00 +9°C° 0 mm 5 m/s 745 mmHg 91%
    14:00 +10°C° 0 mm 5 m/s 745 mmHg 89%
    15:00 +12°C° 0 mm 5 m/s 744 mmHg 87%
    16:00 +11°C° 0 mm 6 m/s 744 mmHg 87%
    17:00 +11°C° 0 mm 7 m/s 745 mmHg 88%
    18:00 +10°C° 0 mm 8 m/s 745 mmHg 88%
    19:00 +10°C° 0 mm 7 m/s 746 mmHg 86%
    20:00 +9°C° 0 mm 7 m/s 746 mmHg 84%
    21:00 +8°C° 0 mm 6 m/s 747 mmHg 82%
    22:00 +8°C° 0 mm 5 m/s 748 mmHg 84%
    23:00 +7°C° 0 mm 5 m/s 748 mmHg 87%

    Après-demain, 31 Janvier, Vendredi

    Heure Température Précipitation Vent Pression Humidité
    00:00 +6°C° 0 mm 4 m/s 749 mmHg 90%
    01:00 +7°C° 0 mm 4 m/s 749 mmHg 90%
    02:00 +8°C° 0 mm 5 m/s 749 mmHg 90%
    03:00 +8°C° 0 mm 5 m/s 749 mmHg 90%
    04:00 +9°C° 0 mm 6 m/s 749 mmHg 89%
    05:00 +10°C° 0 mm 7 m/s 749 mmHg 88%
    06:00 +10°C° 0 mm 7 m/s 749 mmHg 87%
    07:00 +10°C° 0 mm 8 m/s 749 mmHg 86%
    08:00 +11°C° 0 mm 8 m/s 749 mmHg 86%
    09:00 +11°C° 0 mm 8 m/s 748 mmHg 85%
    10:00 +11°C° 0 mm 8 m/s 748 mmHg 85%
    11:00 +11°C° 0 mm 8 m/s 748 mmHg 86%
    12:00 +11°C° 0 mm 8 m/s 748 mmHg 86%
    13:00 +11°C° 0 mm 8 m/s 748 mmHg 87%
    14:00 +11°C° 0 mm 8 m/s 747 mmHg 87%
    15:00 +12°C° 0 mm 7 m/s 747 mmHg 87%
    16:00 +11°C° 0 mm 7 m/s 747 mmHg 87%
    17:00 +11°C° 0 mm 6 m/s 747 mmHg 87%
    18:00 +10°C° 0 mm 6 m/s 746 mmHg 87%
    19:00 +10°C° 0 mm 6 m/s 746 mmHg 87%
    20:00 +10°C° 0 mm 6 m/s 746 mmHg 86%
    21:00 +9°C° 0 mm 6 m/s 746 mmHg 85%
    22:00 +9°C° 0 mm 6 m/s 746 mmHg 84%
    23:00 +10°C° 0 mm 6 m/s 745 mmHg 83%

    1 Février, Samedi

    Heure Température Précipitation Vent Pression Humidité
    00:00 +10°C° 0 mm 6 m/s 745 mmHg 82%
    01:00 +9°C° 0 mm 6 m/s 745 mmHg 83%
    02:00 +9°C° 0 mm 6 m/s 745 mmHg 84%
    03:00 +8°C° 0 mm 6 m/s 745 mmHg 86%
    04:00 +7°C° 0 mm 5 m/s 745 mmHg 85%
    05:00 +7°C° 0 mm 5 m/s 745 mmHg 84%
    06:00 +6°C° 0 mm 5 m/s 744 mmHg 84%
    07:00 +6°C° 0 mm 5 m/s 745 mmHg 80%
    08:00 +5°C° 0 mm 6 m/s 745 mmHg 77%
    09:00 +5°C° 0 mm 7 m/s 746 mmHg 74%
    10:00 +5°C° 0 mm 8 m/s 746 mmHg 71%
    11:00 +6°C° 0 mm 9 m/s 747 mmHg 67%
    12:00 +6°C° 0 mm 10 m/s 748 mmHg 64%
    13:00 +6°C° 0 mm 10 m/s 748 mmHg 64%
    14:00 +6°C° 0 mm 10 m/s 749 mmHg 64%
    15:00 +6°C° 0 mm 10 m/s 749 mmHg 64%
    16:00 +5°C° 0 mm 9 m/s 750 mmHg 66%
    17:00 +4°C° 0 mm 8 m/s 751 mmHg 67%
    18:00 +3°C° 0 mm 7 m/s 752 mmHg 69%
    19:00 +3°C° 0 mm 7 m/s 752 mmHg 71%
    20:00 +2°C° 0 mm 6 m/s 753 mmHg 73%
    21:00 +2°C° 0 mm 6 m/s 753 mmHg 75%
    22:00 +2°C° 0 mm 5 m/s 753 mmHg 75%
    23:00 +2°C° 0 mm 5 m/s 753 mmHg 76%

    2 Février, Dimanche

    Heure Température Précipitation Vent Pression Humidité
    00:00 +3°C° 0 mm 4 m/s 753 mmHg 77%
    01:00 +3°C° 0.4 mm 3 m/s 753 mmHg 82%
    02:00 +3°C° 0.4 mm 3 m/s 752 mmHg 87%
    03:00 +4°C° 0.4 mm 2 m/s 752 mmHg 92%
    04:00 +3°C° 1 mm 3 m/s 751 mmHg 93%
    05:00 +3°C° 1 mm 3 m/s 750 mmHg 93%
    06:00 +4°C° 1 mm 4 m/s 749 mmHg 94%
    07:00 +4°C° 0.3 mm 3 m/s 748 mmHg 95%
    08:00 +5°C° 0.3 mm 3 m/s 748 mmHg 96%
    09:00 +7°C° 0.3 mm 2 m/s 748 mmHg 97%
    10:00 +8°C° 0 mm 4 m/s 749 mmHg 91%
    11:00 +9°C° 0 mm 6 m/s 750 mmHg 84%
    12:00 +11°C° 0 mm 7 m/s 750 mmHg 78%
    13:00 +11°C° 0 mm 6 m/s 751 mmHg 78%
    14:00 +11°C° 0 mm 6 m/s 751 mmHg 78%
    15:00 +10°C° 0 mm 5 m/s 752 mmHg 78%
    16:00 +10°C° 0 mm 4 m/s 752 mmHg 82%
    17:00 +8°C° 0 mm 4 m/s 753 mmHg 85%
    18:00 +7°C° 0 mm 4 m/s 753 mmHg 89%
    19:00 +7°C° 0 mm 4 m/s 754 mmHg 90%
    20:00 +6°C° 0 mm 4 m/s 755 mmHg 91%
    21:00 +6°C° 0 mm 4 m/s 755 mmHg 93%
    22:00 +6°C° 0 mm 4 m/s 755 mmHg 93%
    23:00 +7°C° 0 mm 3 m/s 755 mmHg 94%

    3 Février, Lundi

    Heure Température Précipitation Vent Pression Humidité
    00:00 +7°C° 0 mm 3 m/s 755 mmHg 94%
    01:00 +7°C° 0.1 mm 3 m/s 754 mmHg 95%
    02:00 +7°C° 0.1 mm 3 m/s 754 mmHg 95%
    03:00 +7°C° 0.1 mm 3 m/s 753 mmHg 96%
    04:00 +7°C° 0.5 mm 3 m/s 752 mmHg 95%
    05:00 +6°C° 0.5 mm 4 m/s 751 mmHg 95%
    06:00 +6°C° 0.5 mm 4 m/s 750 mmHg 95%
    07:00 +7°C° 0.6 mm 5 m/s 749 mmHg 95%
    08:00 +8°C° 0.6 mm 5 m/s 748 mmHg 95%
    09:00 +9°C° 0.6 mm 6 m/s 747 mmHg 96%
    10:00 +10°C° 0.4 mm 7 m/s 747 mmHg 91%
    11:00 +10°C° 0.4 mm 9 m/s 747 mmHg 85%
    12:00 +11°C° 0.4 mm 10 m/s 746 mmHg 80%
    13:00 +9°C° 0.1 mm 10 m/s 747 mmHg 80%
    14:00 +9°C° 0.1 mm 10 m/s 747 mmHg 80%
    15:00 +9°C° 0.1 mm 10 m/s 747 mmHg 80%
    16:00 +8°C° 0.1 mm 9 m/s 747 mmHg 81%
    17:00 +7°C° 0.1 mm 8 m/s 747 mmHg 82%
    18:00 +6°C° 0.1 mm 7 m/s 747 mmHg 82%
    19:00 +5°C° 0 mm 7 m/s 747 mmHg 83%
    20:00 +5°C° 0 mm 7 m/s 748 mmHg 83%
    21:00 +4°C° 0 mm 6 m/s 748 mmHg 83%
    22:00 +3°C° 0 mm 7 m/s 749 mmHg 80%
    23:00 +3°C° 0 mm 7 m/s 750 mmHg 77%
    Voir plus